This is the latest recevied weather packets stored in our database for station/object K5FEP. If no packets are shown the sender has not sent any weather packets the latest 10 day(s).
| Time | Temp. | Humidity | Pressure | Rain* | Wind** | Luminosity | Snow |
|---|---|---|---|---|---|---|---|
| 1777682375 | 14.44° C | 63% | 1011.1 hPa | 0 mm | - | 0 W/m² | - |
| 1777682072 | 15° C | 62% | 1011 hPa | 0 mm | - | 0 W/m² | - |
| 1777681768 | 15° C | 62% | 1011 hPa | 0 mm | - | 0 W/m² | - |
| 1777681466 | 15° C | 61% | 1010.8 hPa | 0 mm | - | 0 W/m² | - |
| 1777681163 | 15° C | 60% | 1010.4 hPa | 0 mm | - | 0 W/m² | - |
| 1777680861 | 15° C | 60% | 1010.4 hPa | 0 mm | - | 1 W/m² | - |
| 1777680558 | 15.56° C | 59% | 1010.4 hPa | 0 mm | - | 1 W/m² | - |
| 1777680257 | 15.56° C | 58% | 1010.4 hPa | 0 mm | - | 3 W/m² | - |
| 1777679952 | 15.56° C | 57% | 1010.4 hPa | 0 mm | - | 5 W/m² | - |
| 1777679648 | 16.11° C | 57% | 1010.4 hPa | 0 mm | - | 7 W/m² | - |
| 1777679343 | 16.11° C | 56% | 1010.2 hPa | 0 mm | - | 9 W/m² | - |
| 1777679040 | 16.11° C | 56% | 1010.4 hPa | 0 mm | - | 11 W/m² | - |
| 1777678739 | 16.67° C | 55% | 1010.4 hPa | 0 mm | - | 12 W/m² | - |
| 1777678436 | 16.67° C | 53% | 1010.5 hPa | 0 mm | - | 15 W/m² | - |
| 1777678131 | 16.67° C | 53% | 1010.3 hPa | 0 mm | - | 21 W/m² | - |
| 1777677829 | 17.22° C | 52% | 1010.3 hPa | 0 mm | - | 27 W/m² | - |
| 1777677526 | 17.22° C | 51% | 1010.3 hPa | 0 mm | - | 25 W/m² | - |
| 1777677224 | 17.78° C | 50% | 1010.2 hPa | 0 mm | - | 31 W/m² | - |
| 1777676922 | 17.78° C | 49% | 1010.2 hPa | 0 mm | - | 36 W/m² | - |
| 1777676621 | 18.33° C | 48% | 1010.3 hPa | 0 mm | - | 33 W/m² | - |
| 1777676318 | 18.33° C | 49% | 1010.3 hPa | 0 mm | - | 38 W/m² | - |
| 1777676016 | 18.89° C | 47% | 1010.2 hPa | 0 mm | - | 81 W/m² | - |
| 1777675711 | 18.89° C | 47% | 1010.2 hPa | 0 mm | - | 88 W/m² | - |
| 1777675409 | 19.44° C | 45% | 1010.1 hPa | 0 mm | - | 90 W/m² | - |
| 1777675105 | 19.44° C | 45% | 1010.3 hPa | 0 mm | - | 58 W/m² | - |
* Rain latest hour (hover to see other rain measurements)
** Current wind speed in m/s (hover to see current wind gust speed)